Home > Weather > Norway > Florø > Past weeks

Flag for Norway Weather past 2 weeks in Florø, Norway

39 °F

Sprinkles. Mostly cloudy.

Feels Like: 28 °F
Forecast: 44 / 47 °F
Wind: 29 mph from Southeast

Location: Floro

Current Time: Dec 2, 2015 at 4:51:06 AM

Latest Report: Dec 2, 2015 at 3:50 AM

Visibility: N/A

Pressure: 29.62 "Hg

Humidity: 75%

Dew point: 32 °F

Location of FlorøLocation

Historic Weather in Florø — Graph


Florø temperature yesterday

Maximum temperature yesterday: 43 °F (at 5:50 AM)
Minimum temperature yesterday: 36 °F (at 2:20 AM)
Average temperature yesterday: 40 °F

Past Weeks' High & Low Weather Summary

High52 °F (Nov 27, 9:20 AM)100% (Nov 26, 2:50 AM)29.98 "Hg (Nov 26, 2:50 AM)
Low28 °F (Nov 21, 11:50 PM)53% (Nov 30, 7:20 AM)28.71 "Hg (Nov 29, 8:20 PM)
Average40 °F81%29.39 "Hg
* Reported Nov 17 3:20 AM — Dec 2 3:20 AM, Florø, Weather by CustomWeather, © 2015

Note: Actual official high and low records may vary slightly from our data, if they occured in-between our weather recording intervals... More about our weather records


Florø weather history for previous 24 hours

Time TempWeatherWind HumidityBarometerVisibility
3:20 AM
Wed, Dec 2
39 °FOvercast.29 mph70%29.68 "HgN/A
2:50 AM39 °FPartly cloudy.25 mph70%29.71 "HgN/A
2:20 AM39 °FOvercast.25 mph70%29.74 "HgN/A
1:50 AM41 °FOvercast.22 mph66%29.77 "HgN/A
1:20 AM41 °FMostly cloudy.17 mph66%29.77 "HgN/A
12:50 AM39 °FClear.18 mph75%29.77 "HgN/A
12:20 AM39 °FClear.20 mph75%29.80 "HgN/A
11:50 PM
Tue, Dec 1
39 °FClear.20 mph81%29.80 "HgN/A
11:20 PM39 °FPassing clouds.14 mph81%29.83 "HgN/A
10:50 PM39 °FPassing clouds.17 mph81%29.83 "HgN/A
10:20 PM39 °FPassing clouds.15 mph87%29.83 "HgN/A
9:50 PM37 °FPassing clouds.14 mph93%29.83 "HgN/A
9:20 PM37 °FPassing clouds.14 mph93%29.86 "HgN/A
8:50 PM37 °FPassing clouds.13 mph93%29.86 "HgN/A
8:20 PM37 °FPassing clouds.15 mph93%29.86 "HgN/A
7:50 PM37 °FPassing clouds.13 mph93%29.86 "HgN/A
7:20 PM37 °FPassing clouds.12 mph93%29.89 "HgN/A
6:50 PM37 °FScattered showers. Partly cloudy.12 mph93%29.86 "HgN/A
6:20 PM36 °FScattered showers. Passing clouds.12 mph93%29.89 "HgN/A
5:50 PM36 °FSprinkles. Partly cloudy.9 mph93%29.89 "HgN/A
5:20 PM39 °FScattered showers. Passing clouds.10 mph87%29.89 "HgN/A
4:50 PM37 °FScattered showers. Partly cloudy.12 mph87%29.89 "HgN/A
4:20 PM39 °FScattered showers. Partly cloudy.8 mph87%29.86 "HgN/A
3:50 PM39 °FScattered showers. Passing clouds.6 mph75%29.86 "HgN/A
3:20 PM41 °FScattered showers. Scattered clouds.10 mph66%29.86 "HgN/A
2:50 PM41 °FScattered showers. Scattered clouds.14 mph70%29.86 "HgN/A
2:20 PM41 °FScattered showers. Scattered clouds.18 mph66%29.83 "HgN/A
1:50 PM41 °FScattered showers. Broken clouds.17 mph66%29.83 "HgN/A
1:20 PM39 °FScattered showers. Broken clouds.9 mph75%29.83 "HgN/A
12:50 PM41 °FScattered showers. Scattered clouds.16 mph66%29.83 "HgN/A
12:20 PM43 °FScattered showers. Scattered clouds.21 mph66%29.77 "HgN/A
11:50 AM43 °FScattered showers. Scattered clouds.22 mph66%29.77 "HgN/A
11:20 AM41 °FScattered showers. Broken clouds.25 mph76%29.74 "HgN/A
10:50 AM39 °FSprinkles. Scattered clouds.17 mph70%29.74 "HgN/A
10:20 AM41 °FSprinkles. Scattered clouds.22 mph70%29.71 "HgN/A
9:50 AM43 °FSprinkles. Scattered clouds.24 mph66%29.71 "HgN/A
8:50 AM43 °FScattered showers. Passing clouds.29 mph57%29.68 "HgN/A
8:20 AM43 °FSprinkles. Passing clouds.30 mph66%29.65 "HgN/A
7:50 AM43 °FPassing clouds.26 mph57%29.65 "HgN/A
7:20 AM41 °FPassing clouds.23 mph70%29.62 "HgN/A
6:50 AM39 °FSprinkles. Passing clouds.17 mph81%29.62 "HgN/A
6:20 AM39 °FSprinkles. Passing clouds.32 mph81%29.62 "HgN/A
5:50 AM43 °FPassing clouds.32 mph66%29.59 "HgN/A
5:20 AM41 °FSprinkles. Passing clouds.26 mph61%29.56 "HgN/A
4:50 AM41 °FPassing clouds.26 mph66%29.56 "HgN/A
4:20 AM41 °FPassing clouds.30 mph66%29.53 "HgN/A
Weather by CustomWeather, © 2015

See weather overviewHow to use our weather pages